• In Latvia
  • List of Countries
  • For 7 days
  • Water Temperature
  • Satellite Maps
  • Weather Map
  • Weather Widgets
  • user-avatar
    Login

    Hourly Weather Tomdibuloq

    Today, 23 July, Monday

    Time Temperature Precipitation Wind Pressure Humidity
    00:00 +40°C° 0 mm 6 mps 728 mmHg 19%
    01:00 +39°C° 0 mm 6 mps 728 mmHg 19%
    02:00 +37°C° 0 mm 5 mps 728 mmHg 21%
    03:00 +36°C° 0 mm 5 mps 729 mmHg 22%
    04:00 +35°C° 0 mm 4 mps 729 mmHg 24%
    05:00 +36°C° 0 mm 5 mps 729 mmHg 23%
    06:00 +36°C° 0 mm 5 mps 729 mmHg 23%
    07:00 +36°C° 0 mm 6 mps 729 mmHg 22%
    08:00 +38°C° 0 mm 6 mps 730 mmHg 21%
    09:00 +39°C° 0 mm 6 mps 730 mmHg 20%
    10:00 +40°C° 0 mm 6 mps 730 mmHg 20%
    11:00 +41°C° 0 mm 6 mps 730 mmHg 19%
    12:00 +41°C° 0 mm 6 mps 730 mmHg 18%
    13:00 +42°C° 0 mm 6 mps 730 mmHg 17%
    14:00 +42°C° 0 mm 6 mps 730 mmHg 17%
    15:00 +43°C° 0 mm 7 mps 730 mmHg 17%
    16:00 +43°C° 0 mm 7 mps 730 mmHg 16%
    17:00 +40°C° 0 mm 8 mps 730 mmHg 18%
    18:00 +39°C° 0 mm 8 mps 730 mmHg 19%
    19:00 +38°C° 0 mm 9 mps 730 mmHg 20%
    20:00 +37°C° 0 mm 9 mps 730 mmHg 19%
    21:00 +34°C° 0 mm 10 mps 731 mmHg 18%
    22:00 +33°C° 0 mm 10 mps 731 mmHg 17%
    23:00 +32°C° 0 mm 10 mps 732 mmHg 16%

    Tomorrow, 24 July, Tuesday

    Time Temperature Precipitation Wind Pressure Humidity
    00:00 +31°C° 0 mm 10 mps 732 mmHg 16%
    01:00 +29°C° 0 mm 9 mps 732 mmHg 16%
    02:00 +28°C° 0 mm 9 mps 732 mmHg 17%
    03:00 +27°C° 0 mm 9 mps 732 mmHg 19%
    04:00 +26°C° 0 mm 9 mps 732 mmHg 21%
    05:00 +26°C° 0 mm 9 mps 733 mmHg 21%
    06:00 +26°C° 0 mm 10 mps 733 mmHg 21%
    07:00 +27°C° 0 mm 10 mps 733 mmHg 21%
    08:00 +28°C° 0 mm 10 mps 734 mmHg 18%
    09:00 +31°C° 0 mm 10 mps 734 mmHg 16%
    10:00 +32°C° 0 mm 10 mps 734 mmHg 14%
    11:00 +33°C° 0 mm 10 mps 734 mmHg 12%
    12:00 +34°C° 0 mm 10 mps 734 mmHg 11%
    13:00 +36°C° 0 mm 10 mps 734 mmHg 9%
    14:00 +37°C° 0 mm 10 mps 734 mmHg 9%
    15:00 +37°C° 0 mm 10 mps 734 mmHg 10%
    16:00 +37°C° 0 mm 11 mps 734 mmHg 10%
    17:00 +36°C° 0 mm 11 mps 734 mmHg 12%
    18:00 +34°C° 0 mm 10 mps 734 mmHg 14%
    19:00 +33°C° 0 mm 10 mps 734 mmHg 16%
    20:00 +32°C° 0 mm 10 mps 735 mmHg 18%
    21:00 +31°C° 0 mm 10 mps 735 mmHg 19%
    22:00 +29°C° 0 mm 10 mps 735 mmHg 21%
    23:00 +29°C° 0 mm 9 mps 735 mmHg 23%

    Day after tomorrow, 25 July, Wednesday

    Time Temperature Precipitation Wind Pressure Humidity
    00:00 +28°C° 0 mm 9 mps 735 mmHg 24%
    01:00 +28°C° 0 mm 9 mps 735 mmHg 25%
    02:00 +28°C° 0 mm 8 mps 735 mmHg 26%
    03:00 +27°C° 0 mm 7 mps 735 mmHg 27%
    04:00 +27°C° 0 mm 6 mps 735 mmHg 29%
    05:00 +27°C° 0 mm 7 mps 735 mmHg 29%
    06:00 +28°C° 0 mm 9 mps 736 mmHg 28%
    07:00 +29°C° 0 mm 10 mps 736 mmHg 28%
    08:00 +31°C° 0 mm 10 mps 736 mmHg 27%
    09:00 +32°C° 0 mm 10 mps 736 mmHg 25%
    10:00 +33°C° 0 mm 11 mps 736 mmHg 24%
    11:00 +33°C° 0 mm 11 mps 736 mmHg 22%
    12:00 +34°C° 0 mm 11 mps 736 mmHg 20%
    13:00 +36°C° 0 mm 11 mps 735 mmHg 18%
    14:00 +36°C° 0 mm 11 mps 735 mmHg 18%
    15:00 +36°C° 0 mm 11 mps 735 mmHg 18%
    16:00 +36°C° 0 mm 11 mps 735 mmHg 18%
    17:00 +34°C° 0 mm 11 mps 735 mmHg 19%
    18:00 +33°C° 0 mm 11 mps 735 mmHg 20%
    19:00 +32°C° 0 mm 10 mps 735 mmHg 21%
    20:00 +32°C° 0 mm 10 mps 735 mmHg 23%
    21:00 +31°C° 0 mm 10 mps 735 mmHg 25%
    22:00 +29°C° 0 mm 10 mps 735 mmHg 26%
    23:00 +29°C° 0 mm 9 mps 735 mmHg 27%

    26 July, Thursday

    Time Temperature Precipitation Wind Pressure Humidity
    00:00 +28°C° 0 mm 9 mps 735 mmHg 29%
    01:00 +28°C° 0 mm 9 mps 735 mmHg 30%
    02:00 +27°C° 0 mm 8 mps 735 mmHg 31%
    03:00 +27°C° 0 mm 8 mps 735 mmHg 32%
    04:00 +26°C° 0 mm 8 mps 735 mmHg 33%
    05:00 +27°C° 0 mm 9 mps 735 mmHg 32%
    06:00 +27°C° 0 mm 9 mps 736 mmHg 31%
    07:00 +28°C° 0 mm 10 mps 736 mmHg 31%
    08:00 +29°C° 0 mm 10 mps 736 mmHg 28%
    09:00 +31°C° 0 mm 10 mps 736 mmHg 26%
    10:00 +32°C° 0 mm 9 mps 736 mmHg 23%
    11:00 +33°C° 0 mm 9 mps 736 mmHg 22%
    12:00 +34°C° 0 mm 9 mps 735 mmHg 20%
    13:00 +35°C° 0 mm 9 mps 735 mmHg 18%
    14:00 +35°C° 0 mm 9 mps 735 mmHg 17%
    15:00 +35°C° 0 mm 9 mps 735 mmHg 17%
    16:00 +37°C° 0 mm 9 mps 735 mmHg 16%
    17:00 +35°C° 0 mm 9 mps 735 mmHg 16%
    18:00 +34°C° 0 mm 8 mps 735 mmHg 16%
    19:00 +34°C° 0 mm 8 mps 735 mmHg 16%
    20:00 +33°C° 0 mm 8 mps 735 mmHg 16%
    21:00 +32°C° 0 mm 8 mps 735 mmHg 16%
    22:00 +32°C° 0 mm 8 mps 735 mmHg 16%
    23:00 +31°C° 0 mm 8 mps 735 mmHg 17%

    27 July, Friday

    Time Temperature Precipitation Wind Pressure Humidity
    00:00 +29°C° 0 mm 8 mps 735 mmHg 18%
    01:00 +29°C° 0 mm 7 mps 735 mmHg 19%
    02:00 +28°C° 0 mm 7 mps 735 mmHg 20%
    03:00 +27°C° 0 mm 6 mps 735 mmHg 21%
    04:00 +27°C° 0 mm 5 mps 735 mmHg 22%
    05:00 +27°C° 0 mm 6 mps 735 mmHg 21%
    06:00 +28°C° 0 mm 7 mps 735 mmHg 20%
    07:00 +29°C° 0 mm 8 mps 736 mmHg 19%
    08:00 +31°C° 0 mm 9 mps 736 mmHg 17%
    09:00 +33°C° 0 mm 9 mps 735 mmHg 16%
    10:00 +34°C° 0 mm 9 mps 735 mmHg 15%
    11:00 +35°C° 0 mm 9 mps 735 mmHg 13%
    12:00 +37°C° 0 mm 9 mps 735 mmHg 12%
    13:00 +38°C° 0 mm 9 mps 734 mmHg 11%
    14:00 +38°C° 0 mm 9 mps 734 mmHg 11%
    15:00 +38°C° 0 mm 9 mps 734 mmHg 11%
    16:00 +38°C° 0 mm 9 mps 733 mmHg 11%
    17:00 +37°C° 0 mm 9 mps 734 mmHg 13%
    18:00 +37°C° 0 mm 8 mps 734 mmHg 14%
    19:00 +35°C° 0 mm 8 mps 734 mmHg 16%
    20:00 +34°C° 0 mm 8 mps 734 mmHg 17%
    21:00 +34°C° 0 mm 8 mps 734 mmHg 19%
    22:00 +33°C° 0 mm 8 mps 734 mmHg 20%
    23:00 +32°C° 0 mm 8 mps 734 mmHg 20%

    28 July, Saturday

    Time Temperature Precipitation Wind Pressure Humidity
    00:00 +32°C° 0 mm 7 mps 733 mmHg 20%
    01:00 +30°C° 0 mm 7 mps 733 mmHg 21%
    02:00 +29°C° 0 mm 7 mps 733 mmHg 21%
    03:00 +29°C° 0 mm 7 mps 733 mmHg 21%
    04:00 +28°C° 0 mm 6 mps 734 mmHg 21%
    05:00 +29°C° 0 mm 7 mps 734 mmHg 22%
    06:00 +29°C° 0 mm 7 mps 734 mmHg 22%
    07:00 +31°C° 0 mm 8 mps 734 mmHg 23%
    08:00 +32°C° 0 mm 8 mps 734 mmHg 21%
    09:00 +34°C° 0 mm 8 mps 734 mmHg 20%
    10:00 +35°C° 0 mm 8 mps 735 mmHg 19%
    11:00 +37°C° 0 mm 8 mps 734 mmHg 18%
    12:00 +38°C° 0 mm 8 mps 734 mmHg 17%
    13:00 +38°C° 0 mm 8 mps 734 mmHg 16%
    14:00 +39°C° 0 mm 8 mps 734 mmHg 16%
    15:00 +39°C° 0 mm 8 mps 733 mmHg 15%
    16:00 +39°C° 0 mm 8 mps 733 mmHg 15%
    17:00 +38°C° 0 mm 8 mps 733 mmHg 16%
    18:00 +38°C° 0 mm 8 mps 733 mmHg 17%
    19:00 +36°C° 0 mm 7 mps 733 mmHg 19%
    20:00 +35°C° 0 mm 8 mps 733 mmHg 19%
    21:00 +34°C° 0 mm 8 mps 734 mmHg 19%
    22:00 +33°C° 0 mm 8 mps 734 mmHg 19%
    23:00 +33°C° 0 mm 8 mps 733 mmHg 19%
    Show more